Akron, New York, United States (14001)
Lat: 43.02N, Lon: 78.5W
Wx Zone: NYZ010
Local Info
Past Weather Observations for Today

NOTE: This archive is for the closest National Weather Service station to Akron. Information may differ from the station used for current weather conditions.

Click here for Long-term Archive

Time Weather Temperature Dewpoint Humidity Pressure Winds Precip Visibility
19:54
Partly Cloudy
75°F / 24°C 59°F / 15°C 57% 30.01 in
(1016 mb)
E 9.2 mph
(E 15 kph)
- 10SM
18:54
Mostly Cloudy
77°F / 25°C 59°F / 15°C 54% 30.01 in
(1016 mb)
E 11.5 mph
(E 19 kph)
- 10SM
17:54
Mostly Cloudy
79°F / 26°C 61°F / 16°C 54% 30.01 in
(1016 mb)
E 11.5 mph
(E 19 kph)
- 10SM
16:54
Mostly Cloudy
81°F / 27°C 61°F / 16°C 51% 30.01 in
(1016 mb)
ESE 12.7 mph
(ESE 20 kph)
- 10SM
15:54
Mostly Cloudy
81°F / 27°C 61°F / 16°C 51% 29.98 in
(1015 mb)
E 10.4 mph
(E 17 kph)
- 10SM
14:54
Mostly Cloudy
81°F / 27°C 57°F / 14°C 45% 30.01 in
(1016 mb)
E 15 mph
(E 24 kph)
- 10SM
13:54
Mostly Cloudy
81°F / 27°C 57°F / 14°C 45% 30.01 in
(1016 mb)
ENE 12.7 mph
(ENE 20 kph)
- 10SM
12:54
Mostly Cloudy
79°F / 26°C 61°F / 16°C 54% 30.04 in
(1017 mb)
Variable 3.5 mph
(Variable 6 kph)
- 10SM
11:54
Mostly Cloudy
75°F / 24°C 61°F / 16°C 61% 30.04 in
(1017 mb)
ENE 12.7 mph
(ENE 20 kph)
- 10SM
10:54
Mostly Cloudy
72°F / 22°C 61°F / 16°C 69% 30.04 in
(1017 mb)
E 10.4 mph
(E 17 kph)
0.00 in
(0.00 mm)
10SM
09:54
Overcast
70°F / 21°C 59°F / 15°C 69% 30.04 in
(1017 mb)
E 10.4 mph
(E 17 kph)
- 10SM
08:54
Mostly Cloudy
70°F / 21°C 59°F / 15°C 69% 30.04 in
(1017 mb)
ENE 9.2 mph
(ENE 15 kph)
0.00 in
(0.00 mm)
10SM
07:54
Overcast
Light Rain
68°F / 20°C 59°F / 15°C 73% 30.06 in
(1018 mb)
SE 5.8 mph
(SE 9 kph)
0.00 in
(0.00 mm)
10SM
06:54
Overcast
68°F / 20°C 57°F / 14°C 69% 30.01 in
(1016 mb)
ENE 10.4 mph
(ENE 17 kph)
- 10SM
05:54
Overcast
68°F / 20°C 59°F / 15°C 73% 30.01 in
(1016 mb)
ENE 10.4 mph
(ENE 17 kph)
- 10SM
04:54
Overcast
68°F / 20°C 59°F / 15°C 73% 30.01 in
(1016 mb)
ENE 13.8 mph
(ENE 22 kph)
- 10SM
03:54
Mostly Cloudy
68°F / 20°C 61°F / 16°C 78% 30.01 in
(1016 mb)
E 11.5 mph
(E 19 kph)
- 10SM
02:54
Mostly Cloudy
68°F / 20°C 61°F / 16°C 78% 30.01 in
(1016 mb)
ENE 10.4 mph
(ENE 17 kph)
- 10SM
01:54
Mostly Cloudy
70°F / 21°C 59°F / 15°C 69% 30.01 in
(1016 mb)
ENE 10.4 mph
(ENE 17 kph)
- 10SM
00:54
Mostly Cloudy
68°F / 20°C 59°F / 15°C 73% 30.01 in
(1016 mb)
ENE 6.9 mph
(ENE 11 kph)
- 10SM
Time Weather Temperature Dewpoint Humidity Pressure Winds Precip Visibility


Weather for websites

WeatherForYou.com, LLC is not responsible for any damages or problems caused by this service. Current weather conditions are obtained from the closest station including government and personal stations which may have varying degrees of accuracy. Weather forecasts are derived from the NOAA NDFD. Like all things, this site belongs to Jesus Christ... He just trusts us to maintain it. If you have any questions or comments email webmaster@weatherforyou.com

Copyright © 2016, WeatherForYou.com LLC. All rights reserved.